GW3529 Weather Reports


Display with metric or nautical units.
time (UTC)temp
F
wind
direction
speed
MPH
gust
MPH
rain 1hr
in
rain 24hr
in
rain mn
in
humidity
%
barometer
mb
20260502163028 70 318 8.0 18.0 0.00 0.00 0.00 21 1013.4
20260502161525 70 5 11.0 19.0 0.00 0.00 0.00 21 1013.5
20260502151518 67 355 7.0 16.0 0.00 0.00 0.00 26 1014.2
20260502123009 49 172 2.0 9.0 0.00 0.00 0.00 42 1016.1
20260502121613 48 355 1.0 3.0 0.00 0.00 0.00 41 1016.3
20260502114530 48 331 3.0 6.0 0.00 0.00 0.00 41 1016.6
20260502113035 48 245 4.0 10.0 0.00 0.00 0.00 42 1016.6
20260502111539 48 199 6.0 10.0 0.00 0.00 0.00 42 1016.4
20260502110028 48 188 3.0 5.0 0.00 0.00 0.00 41 1016.7
20260502104522 47 191 2.0 4.0 0.00 0.00 0.00 42 1016.9
20260502103021 47 151 0.0 4.0 0.00 0.00 0.00 42 1017.1
20260502101519 47 146 2.0 6.0 0.00 0.00 0.00 42 1017.3
20260502091511 46 158 4.0 10.0 0.00 0.00 0.00 45 1017.9
20260502080107 46 166 14.0 18.0 0.00 0.00 0.00 43 1018.4
20260502070046 42 203 1.0 8.0 0.00 0.00 0.00 51 1019.3
20260502064543 42 200 3.0 5.0 0.00 0.00 0.00 51 1019.6
20260502063055 41 186 0.0 1.0 0.00 0.00 0.00 52 1019.7
20260502061547 40 186 0.0 0.0 0.00 0.00 0.00 54 1019.8
20260502060036 41 178 0.0 0.0 0.00 0.00 0.00 52 1019.9
20260502054534 42 170 0.0 0.0 0.00 0.00 0.00 50 1020.0
20260502053038 44 167 0.0 3.0 0.00 0.00 0.00 47 1019.9
20260502051535 46 174 0.0 10.0 0.00 0.00 0.00 44 1020.1
20260502050032 43 175 0.0 6.0 0.00 0.00 0.00 50 1020.3
20260502044531 42 171 0.0 3.0 0.00 0.00 0.00 51 1020.5
20260502043031 43 167 0.0 0.0 0.00 0.00 0.00 50 1020.6
20260502041529 43 166 0.0 0.0 0.00 0.00 0.00 51 1020.5
20260502040130 43 165 0.0 0.0 0.00 0.00 0.00 51 1020.5
20260502034528 43 157 0.0 0.0 0.00 0.00 0.00 50 1020.5
20260502033028 46 157 0.0 6.0 0.00 0.00 0.00 45 1020.4
20260502031527 47 155 0.0 0.0 0.00 0.00 0.00 43 1020.3
20260502030027 46 154 0.0 0.0 0.00 0.00 0.00 44 1020.1
20260502024528 46 153 0.0 5.0 0.00 0.00 0.00 46 1020.0
20260502023032 48 110 0.0 0.0 0.00 0.00 0.00 43 1019.6
20260502021529 51 63 0.0 0.0 0.00 0.00 0.00 38 1019.4
20260502020027 52 63 0.0 0.0 0.00 0.00 0.00 37 1019.2
20260502014526 54 34 0.0 0.0 0.00 0.00 0.00 34 1019.2
20260502013024 55 34 0.0 5.0 0.00 0.00 0.00 33 1018.9
20260502011524 56 24 0.0 4.0 0.00 0.00 0.00 31 1018.8
20260502010023 56 63 0.0 0.0 0.00 0.00 0.00 30 1018.8
20260502004525 56 59 0.0 13.0 0.00 0.00 0.00 30 1018.7
20260502003022 57 28 0.0 7.0 0.00 0.00 0.00 30 1018.5
20260502001525 57 71 2.0 12.0 0.00 0.00 0.00 30 1018.5
20260502000022 58 360 0.0 9.0 0.00 0.00 0.00 30 1018.4
20260501234520 58 16 0.0 13.0 0.00 0.00 0.00 30 1018.4
20260501233019 58 75 0.0 14.0 0.00 0.00 0.00 30 1018.4
20260501231518 58 23 1.0 16.0 0.00 0.00 0.00 30 1018.3
20260501230018 58 5 6.0 14.0 0.00 0.00 0.00 30 1018.2
20260501224518 58 11 0.0 13.0 0.00 0.00 0.00 31 1018.3
20260501223017 59 325 0.0 6.0 0.00 0.00 0.00 30 1018.1
20260501221518 59 350 11.0 16.0 0.00 0.00 0.00 31 1018.2
20260501220015 58 347 0.0 13.0 0.00 0.00 0.00 31 1018.1
20260501214512 58 65 1.0 14.0 0.00 0.00 0.00 32 1018.4
20260501213011 58 26 11.0 17.0 0.00 0.00 0.00 31 1018.5
20260501211509 58 23 3.0 19.0 0.00 0.00 0.00 33 1018.6
20260501210008 58 25 0.0 15.0 0.00 0.00 0.00 35 1018.7
20260501204507 57 5 3.0 18.0 0.00 0.00 0.00 33 1018.8
20260501203005 57 351 2.0 17.0 0.00 0.00 0.00 38 1018.9
20260501201504 57 360 8.0 14.0 0.00 0.00 0.00 38 1018.9
20260501200010 57 360 10.0 20.0 0.00 0.00 0.00 37 1019.0
20260501194500 56 36 9.0 15.0 0.00 0.00 0.00 39 1019.1
20260501193000 56 43 11.0 22.0 0.00 0.00 0.00 37 1019.1
20260501191600 55 62 11.0 20.0 0.00 0.00 0.00 38 1019.0
20260501190100 55 320 10.0 24.0 0.00 0.00 0.00 39 1018.9
20260501190001 55 346 14.0 24.0 0.00 0.00 0.00 38 1018.8
20260501184558 56 9 14.0 21.0 0.00 0.00 0.00 37 1018.8
20260501183058 56 5 10.0 22.0 0.00 0.00 0.00 38 1018.8
20260501181603 55 355 4.0 21.0 0.00 0.00 0.00 38 1018.8
20260501180058 55 59 12.0 19.0 0.00 0.00 0.00 37 1018.9
20260501174553 55 19 10.0 17.0 0.00 0.00 0.00 37 1019.0
20260501173053 55 360 14.0 18.0 0.00 0.00 0.00 36 1019.0
20260501171553 55 355 3.0 12.0 0.00 0.00 0.00 37 1019.1